HB9FHL-13 Weather Reports


time (UTC)temp
F
wind
direction
speed
knots
gust
knots
rain 1hr
in
rain 24hr
in
rain mn
in
humidity
%
barometer
mb
20260506212602 51 222 5.2 9.6 0.00 0.00 0.38 1010.3
20260506212102 51 225 5.2 8.7 0.00 0.00 0.38 1013.4
20260506211602 50 240 5.2 8.7 0.00 0.00 0.38 1011.7
20260506211100 51 224 5.2 7.8 0.00 0.00 0.38 1009.4
20260506210059 50 239 6.1 9.6 0.00 0.00 0.38 1010.7
20260506205558 51 236 5.2 9.6 0.00 0.00 0.38 1011.5
20260506205058 49 245 7.0 12.2 0.00 0.00 0.38 1014.5
20260506204557 49 235 6.1 9.6 0.00 0.00 0.38 1010.7
20260506204057 49 228 4.3 7.0 0.00 0.00 0.38 1013.6
20260506203556 51 226 5.2 8.7 0.00 0.00 0.38 1012.8
20260506203056 51 225 4.3 7.0 0.00 0.00 0.38 1010.0
20260506202555 51 228 4.3 8.7 0.00 0.00 0.38 1010.8
20260506202055 50 256 3.5 7.8 0.00 0.00 0.38 1014.5
20260506201554 50 236 4.3 7.8 0.00 0.00 0.38 1013.6
20260506201054 49 233 5.2 8.7 0.00 0.00 0.38 1012.4
20260506200554 50 222 4.3 9.6 0.00 0.00 0.38 1009.8
20260506200053 51 233 2.6 5.2 0.00 0.00 0.38 1014.9
20260506195552 50 228 1.7 5.2 0.00 0.00 0.38 1013.6
20260506195052 50 243 2.6 5.2 0.00 0.00 0.38 1009.1
20260506194551 49 228 0.9 2.6 0.00 0.00 0.38 1009.4
20260506194051 50 231 0.0 1.7 0.00 0.00 0.38 1008.8
20260506193550 50 0 0.0 0.0 0.00 0.00 0.38 1009.9
20260506193050 50 283 0.0 1.7 0.00 0.00 0.38 1010.4
20260506192549 49 231 0.9 3.5 0.00 0.00 0.38 1011.4
20260506192049 51 0 0.0 0.0 0.00 0.00 0.38 1008.4
20260506191549 50 0 0.0 0.0 0.00 0.00 0.38 1009.3
20260506191048 50 0 0.0 0.0 0.00 0.00 0.38 1010.7
20260506190547 51 238 0.0 0.9 0.00 0.00 0.38 1010.5
20260506190047 50 243 0.9 2.6 0.00 0.00 0.38 1011.1
20260506185546 50 231 0.9 3.5 0.00 0.00 0.38 1009.9
20260506185046 50 229 1.7 3.5 0.00 0.00 0.38 1012.7
20260506184546 49 224 0.9 2.6 0.00 0.00 0.38 1007.2
20260506184045 51 228 0.9 1.7 0.00 0.00 0.38 1011.1
20260506183545 50 224 0.9 2.6 0.00 0.00 0.38 1010.7
20260506183044 52 0 0.0 0.0 0.00 0.00 0.38 1010.6
20260506182544 51 229 0.0 1.7 0.00 0.00 0.38 1008.8
20260506182043 50 0 0.0 0.0 0.00 0.00 0.38 1006.7
20260506181543 50 225 0.9 4.3 0.00 0.00 0.38 1011.0
20260506181042 51 218 3.5 7.0 0.00 0.00 0.38 1006.4
20260506180542 51 226 4.3 7.8 0.00 0.00 0.38 1011.7
20260506180041 50 236 3.5 7.0 0.00 0.00 0.38 1010.6
20260506175541 51 228 3.5 7.0 0.00 0.00 0.38 1007.6
20260506175040 50 228 1.7 4.3 0.00 0.00 0.38 1006.6
20260506174540 52 222 3.5 6.1 0.00 0.00 0.38 1011.0
20260506174039 51 257 2.6 7.0 0.00 0.00 0.38 1012.2
20260506173539 51 236 4.3 9.6 0.00 0.00 0.38 1008.9
20260506173038 50 242 4.3 7.8 0.00 0.00 0.38 1011.5
20260506172538 51 235 6.1 11.3 0.00 0.00 0.38 1006.1
20260506172037 51 238 6.1 13.9 0.00 0.00 0.38 1003.8
20260506171537 51 232 7.0 14.8 0.00 0.00 0.38 1001.0
20260506171036 52 232 7.0 11.3 0.00 0.00 0.38 1015.9
20260506170536 51 238 9.6 19.1 0.00 0.00 0.38 1007.8
20260506170035 53 219 7.0 13.9 0.00 0.00 0.38 1002.9
20260506165535 50 250 7.0 13.0 0.00 0.00 0.38 1006.9
20260506165034 50 229 7.8 15.6 0.00 0.00 0.38 1010.9
20260506164533 52 242 7.8 13.9 0.00 0.00 0.37 1013.7
20260506164033 53 225 7.8 13.9 0.00 0.00 0.37 1006.8
20260506163532 50 240 7.8 13.0 0.00 0.00 0.37 1001.9
20260506163032 50 264 7.8 13.0 0.00 0.00 0.37 1020.1
20260506162531 50 236 6.1 9.6 0.00 0.00 0.37 1006.5
20260506161519 49 236 7.8 13.0 0.00 0.00 0.37 1011.3
20260506161018 49 231 6.1 10.4 0.00 0.00 0.37 1002.7
20260506160517 52 240 6.1 13.0 0.00 0.00 0.37 1013.3
20260506160017 50 221 7.8 13.0 0.00 0.00 0.37 1009.0
20260506155516 50 239 7.0 12.2 0.00 0.00 0.37 1008.5
20260506155016 51 229 7.0 16.5 0.00 0.00 0.37 1002.5
20260506154518 52 246 7.0 17.4 0.00 0.00 0.37 1014.6
20260506154015 49 218 5.2 8.7 0.00 0.00 0.37 1009.5
20260506153514 50 253 5.2 9.6 0.00 0.00 0.37 1010.1
20260506153014 51 226 6.1 10.4 0.00 0.00 0.37 1014.9
20260506152512 50 225 5.2 8.7 0.00 0.00 0.37 1012.4
20260506152011 49 308 4.3 7.8 0.00 0.00 0.37 1008.4
20260506151510 50 249 2.6 5.2 0.00 0.00 0.37 1007.5
20260506151009 48 255 2.6 5.2 0.00 0.00 0.37 1007.5
20260506150509 49 228 1.7 3.5 0.00 0.00 0.37 1006.5
20260506150008 49 243 0.9 3.5 0.00 0.00 0.37 1008.9
20260506145507 49 284 1.7 6.1 0.00 0.00 0.37 1008.8
20260506145007 51 256 1.7 3.5 0.00 0.00 0.37 1009.0
20260506144504 50 266 1.7 3.5 0.00 0.00 0.37 1008.9
20260506144003 50 239 1.7 3.5 0.00 0.00 0.37 1008.4
20260506143503 50 243 1.7 4.3 0.00 0.00 0.37 1006.9
20260506143002 50 256 3.5 6.1 0.00 0.00 0.37 1006.7
20260506142502 51 270 1.7 3.5 0.00 0.00 0.37 1007.7
20260506142000 50 305 2.6 5.2 0.00 0.00 0.37 1009.5
20260506141458 50 256 4.3 6.1 0.00 0.00 0.37 1006.6
20260506140456 50 242 7.0 10.4 0.00 0.00 0.37 1010.4
20260506135956 49 243 7.8 13.0 0.00 0.00 0.36 1012.5
20260506135455 50 239 7.8 14.8 0.00 0.00 0.36 1006.9
20260506134955 48 231 7.8 11.3 0.00 0.00 0.36 1000.1
20260506134454 52 240 8.7 14.8 0.00 0.00 0.35 1005.0
20260506133452 49 236 7.8 13.0 0.00 0.00 0.33 1009.1
20260506132951 50 239 9.6 14.8 0.00 0.00 0.32 1011.5
20260506132451 50 239 8.7 14.8 0.00 0.00 0.31 1010.1
20260506131950 50 212 9.6 15.6 0.00 0.00 0.30 1009.8
20260506131450 51 242 10.4 17.4 0.00 0.00 0.29 1005.8
20260506130447 49 238 9.6 17.4 0.00 0.00 0.27 999.1
20260506125947 47 240 10.4 17.4 0.00 0.00 0.25 1017.3
20260506125446 49 238 11.3 17.4 0.00 0.00 0.22 1011.6
20260506124946 48 231 11.3 20.9 0.00 0.00 0.19 1003.8
20260506124445 50 246 9.6 15.6 0.00 0.00 0.16 1006.0
20260506123945 50 245 8.7 15.6 0.00 0.00 0.14 1004.4
20260506123444 51 238 9.6 15.6 0.00 0.00 0.12 996.4
20260506122943 49 233 11.3 22.6 0.00 0.00 0.09 1002.9
20260506122443 49 225 7.8 20.0 0.00 0.00 0.06 1006.9
20260506121943 52 283 3.5 7.0 0.00 0.00 0.03 1005.6
20260506121443 51 245 4.3 7.0 0.00 0.00 0.02 1004.7
20260506120441 52 262 5.2 7.8 0.00 0.00 0.01 1004.8
20260506115940 51 280 3.5 6.1 0.00 0.00 0.01 1005.2
20260506115438 52 257 3.5 5.2 0.00 0.00 0.01 1004.8
20260506114937 52 256 2.6 5.2 0.00 0.00 0.00 1005.2
20260506114437 52 235 5.2 10.4 0.00 0.00 0.00 1005.2
20260506113437 53 266 5.2 7.8 0.00 0.00 0.00 1006.9
20260506112937 53 253 4.3 7.8 0.00 0.00 0.00 1001.9
20260506112434 54 243 0.9 3.5 0.00 0.00 0.00 1003.7
20260506111935 55 328 0.9 3.5 0.00 0.00 0.00 1004.2
20260506111432 55 1 0.9 3.5 0.00 0.00 0.00 1005.2
20260506110428 54 18 0.9 3.5 0.00 0.00 0.00 1007.0
20260506105928 56 328 0.9 3.5 0.00 0.00 0.00 1004.0
20260506105427 55 6 0.9 2.6 0.00 0.00 0.00 1007.7
20260506104426 54 30 2.6 4.3 0.00 0.00 0.00 1005.5
20260506103926 55 359 1.7 4.3 0.00 0.00 0.00 1005.9
20260506103425 55 37 2.6 4.3 0.00 0.00 0.00 997.8
20260506102923 53 1 1.7 4.3 0.00 0.00 0.00 1006.5
20260506102422 54 20 0.9 3.5 0.00 0.00 0.00 1008.1
20260506101922 54 18 0.9 3.5 0.00 0.00 0.00 1007.1
20260506101421 55 23 2.6 4.3 0.00 0.00 0.00 1004.9
20260506100920 55 30 3.5 6.1 0.00 0.00 0.00 1006.8
20260506100420 54 24 1.7 2.6 0.00 0.00 0.00 1004.9
20260506095920 54 25 2.6 6.1 0.00 0.00 0.00 1003.8
20260506095416 55 41 2.6 5.2 0.00 0.00 0.00 1002.9
20260506094916 55 11 4.3 7.0 0.00 0.00 0.00 1007.1
20260506094415 55 84 3.5 5.2 0.00 0.00 0.00 1006.5
20260506093914 55 58 3.5 6.1 0.00 0.00 0.00 1006.6
20260506093412 54 15 1.7 7.0 0.00 0.00 0.00 1004.6
20260506092912 55 18 1.7 5.2 0.00 0.00 0.00 1006.8
20260506092411 54 290 0.0 2.6 0.00 0.00 0.00 1005.4
20260506091911 55 332 1.7 5.2 0.00 0.00 0.00 1004.9
20260506091409 54 322 0.9 3.5 0.00 0.00 0.00 1004.2
20260506090908 54 338 0.9 4.3 0.00 0.00 0.00 1004.4
20260506090408 55 55 2.6 5.2 0.00 0.00 0.00 1007.2
20260506085909 54 39 1.7 4.3 0.00 0.00 0.00 1005.4
20260506085407 54 264 0.9 3.5 0.00 0.00 0.00 1007.7
20260506084906 54 326 1.7 4.3 0.00 0.00 0.00 1006.0
20260506084405 54 330 0.9 4.3 0.00 0.00 0.00 1009.4
20260506083904 54 330 0.9 4.3 0.00 0.00 0.00 1006.0
20260506083404 53 329 0.9 3.5 0.00 0.00 0.00 1005.6
20260506082903 53 240 0.0 0.0 0.00 0.00 0.00 1010.0
20260506082403 52 259 0.0 2.6 0.00 0.00 0.00 1005.4
20260506081903 53 333 0.9 1.7 0.00 0.00 0.00 1005.8
20260506081357 52 322 0.0 2.6 0.00 0.00 0.00 1007.4
20260506080857 54 293 0.0 1.7 0.00 0.00 0.00 1008.0
20260506080357 54 332 0.9 2.6 0.00 0.00 0.00 1006.6
20260506073354 53 336 1.7 3.5 0.00 0.00 0.00 1007.1
20260506072853 52 0 0.0 0.0 0.00 0.00 0.00 1005.0
20260506072353 53 264 0.9 1.7 0.00 0.00 0.00 1006.7
20260506071852 53 0 0.0 0.0 0.00 0.00 0.00 1001.9
20260506071352 52 0 0.0 0.0 0.00 0.00 0.00 1003.2
20260506070851 53 255 0.9 1.7 0.00 0.00 0.00 1006.1
20260506070351 52 245 0.0 2.6 0.00 0.00 0.00 1004.7
20260506062346 52 41 0.9 2.6 0.00 0.00 0.00 1005.4
20260506061846 53 17 2.6 3.5 0.00 0.00 0.00 1007.8
20260506061344 53 60 1.7 4.3 0.00 0.00 0.00 1009.1
20260506060843 53 89 1.7 1.7 0.00 0.00 0.00 1007.2
20260506060342 53 101 1.7 2.6 0.00 0.00 0.00 1009.8
20260506051337 52 0 0.0 0.0 0.00 0.00 0.00 1005.4
20260506050836 53 0 0.0 0.0 0.00 0.00 0.00 1001.2
20260506050336 52 0 0.0 0.0 0.00 0.00 0.00 1007.6
20260506044833 52 0 0.0 0.0 0.00 0.00 0.00 1006.8
20260506044329 53 120 0.9 4.3 0.00 0.00 0.00 1006.2
20260506043829 53 155 0.9 3.5 0.00 0.00 0.00 1005.9
20260506043328 52 98 0.0 3.5 0.00 0.00 0.00 1004.6
20260506042828 51 0 0.0 0.0 0.00 0.00 0.00 1005.6
20260506042327 51 0 0.0 0.0 0.00 0.00 0.00 1009.0
20260506041827 51 0 0.0 0.0 0.00 0.00 0.00 1004.5
20260506041326 51 0 0.0 0.0 0.00 0.00 0.00 1006.2
20260506040826 53 121 0.9 3.5 0.00 0.00 0.00 1007.2
20260506040323 52 98 0.9 3.5 0.00 0.00 0.00 1006.6
20260506035822 54 131 0.0 1.7 0.00 0.00 0.00 1004.7
20260506035320 53 0 0.0 0.0 0.00 0.00 0.00 1008.6
20260506034819 51 0 0.0 0.0 0.00 0.00 0.00 1007.1
20260506034318 52 0 0.0 0.0 0.00 0.00 0.00 1007.4
20260506033317 54 0 0.0 0.0 0.00 0.00 0.00 1007.1
20260506032316 54 0 0.0 0.0 0.00 0.00 0.00 1005.4
20260506031816 53 93 0.0 0.9 0.00 0.00 0.00 1008.3
20260506031316 53 0 0.0 0.0 0.00 0.00 0.00 1011.4
20260506030815 53 0 0.0 0.0 0.00 0.00 0.00 1005.7
20260506030311 52 0 0.0 0.0 0.00 0.00 0.00 1007.2
20260506025810 53 0 0.0 0.0 0.00 0.00 0.00 1008.9
20260506025310 53 6 0.0 0.9 0.00 0.00 0.00 1010.6
20260506024809 54 0 0.0 0.0 0.00 0.00 0.00 1008.0
20260506024309 53 236 0.0 0.0 0.00 0.00 0.00 1006.4
20260506023808 52 132 0.0 1.7 0.00 0.00 0.00 1007.5
20260506023308 52 121 0.0 1.7 0.00 0.00 0.00 1010.8
20260506022807 53 0 0.0 0.0 0.00 0.00 0.00 1006.4
20260506022307 53 0 0.0 0.0 0.00 0.00 0.00 1006.8
20260506021806 53 0 0.0 0.0 0.00 0.00 0.00 1008.8
20260506021306 53 201 0.0 0.0 0.00 0.00 0.00 1009.0
20260506020805 53 0 0.0 0.0 0.00 0.00 0.00 1008.4
20260506020305 54 0 0.0 0.0 0.00 0.00 0.00 1011.0
20260506015804 55 0 0.0 0.0 0.00 0.00 0.00 1005.8
20260506015306 54 0 0.0 0.0 0.00 0.00 0.00 1008.7
20260506014803 54 233 0.9 2.6 0.00 0.00 0.00 1009.8
20260506014303 54 215 3.5 6.1 0.00 0.00 0.00 1008.7
20260506013802 54 225 3.5 5.2 0.00 0.00 0.00 1007.7
20260506013302 55 249 3.5 7.0 0.00 0.00 0.00 1011.4
20260506012801 55 233 3.5 7.8 0.00 0.00 0.00 1013.3
20260506011800 55 217 3.5 7.8 0.00 0.00 0.00 1009.1
20260506011300 54 238 4.3 13.0 0.00 0.00 0.00 1009.9
20260506010759 54 226 5.2 11.3 0.00 0.00 0.00 1005.4
20260506010259 56 240 7.0 12.2 0.00 0.00 0.00 1010.6
20260506005756 56 225 5.2 9.6 0.00 0.00 0.00 1004.9
20260506005256 55 232 5.2 8.7 0.00 0.00 0.00 1005.9
20260506004756 53 228 5.2 10.4 0.00 0.00 0.00 1006.5
20260506004255 54 222 4.3 7.8 0.00 0.00 0.00 1007.5
20260506003755 55 233 4.3 7.0 0.00 0.00 0.00 1009.7
20260506003254 56 229 5.2 8.7 0.00 0.00 0.00 1012.4
20260506002754 55 232 3.5 5.2 0.00 0.00 0.00 1008.7
20260506002253 56 229 4.3 7.8 0.00 0.00 0.00 1004.7
20260506001753 55 243 5.2 8.7 0.00 0.00 0.00 1007.2
20260506001254 56 233 6.1 9.6 0.00 0.00 0.00 1010.0
20260506000752 54 252 1.7 8.7 0.00 0.00 0.00 1009.3
20260506000251 54 0 0.0 0.0 0.00 0.00 0.00 1009.8
20260505235751 56 228 0.9 4.3 0.00 0.00 0.00 1006.5
20260505235250 55 232 4.3 9.6 0.00 0.00 0.00 1009.7
20260505234750 55 253 2.6 5.2 0.00 0.00 0.00 1010.5
20260505234249 55 243 2.6 4.3 0.00 0.00 0.00 1008.6
20260505233749 56 225 2.6 5.2 0.00 0.00 0.00 1007.0
20260505233248 55 240 4.3 7.8 0.00 0.00 0.00 1010.7
20260505232748 57 243 3.5 6.1 0.00 0.00 0.00 1013.0
20260505232247 55 217 4.3 7.8 0.00 0.00 0.00 1004.2
20260505231748 56 243 5.2 8.7 0.00 0.00 0.00 1007.2
20260505231246 55 240 5.2 8.7 0.00 0.00 0.00 1009.6
20260505230746 56 243 5.2 7.8 0.00 0.00 0.00 1008.1
20260505230245 55 208 5.2 9.6 0.00 0.00 0.00 1008.3
20260505225745 55 228 5.2 8.7 0.00 0.00 0.00 1007.1
20260505225244 56 225 4.3 7.8 0.00 0.00 0.00 1007.0
20260505224744 57 232 6.1 9.6 0.00 0.00 0.00 1007.0
20260505224243 56 225 3.5 8.7 0.00 0.00 0.00 1011.3
20260505223742 56 252 3.5 7.8 0.00 0.00 0.00 1011.7
20260505223242 56 238 4.3 6.1 0.00 0.00 0.00 1013.2
20260505222741 56 217 5.2 9.6 0.00 0.00 0.00 1011.7
20260505222243 55 221 4.3 8.7 0.00 0.00 0.00 1003.0
20260505221740 55 212 4.3 7.8 0.00 0.00 0.00 1013.9
20260505221240 55 240 2.6 7.8 0.00 0.00 0.00 1008.7
20260505220739 55 238 2.6 6.1 0.00 0.00 0.00 1010.6
20260505220236 54 221 3.5 5.2 0.00 0.00 0.00 1010.0
20260505215736 55 246 2.6 5.2 0.00 0.00 0.00 1006.4
20260505215235 55 238 3.5 6.1 0.00 0.00 0.00 1009.6
20260505214735 56 243 3.5 7.0 0.00 0.00 0.00 1009.6
20260505214234 54 231 3.5 7.8 0.00 0.00 0.00 1007.1
20260505213738 55 236 3.5 7.0 0.00 0.00 0.00 1009.8
20260505213233 57 231 3.5 7.0 0.00 0.00 0.00 1008.3